Home > Weather > Tulkarm > Past weeks

Flag for Palestinian Territories Past Weather in Tulkarm, West Bank, Palestinian Territories — Yesterday and Last 2 Weeks

Now
81 °F

Passing clouds.


Feels Like: 85 °F
Forecast: 76 / 89 °F
Wind: 6 mph from Southeast

Location: Dov Airport

Current Time: Jul 27, 2016 at 8:59:50 AM

Latest Report: Jul 27, 2016 at 7:50 AM


Visibility: N/A

Pressure: 29.74 "Hg

Humidity: 74%

Dew Point: 72 °F

Location of TulkarmLocation

Past Weather in Tulkarm — Graph

°F

Tulkarm Temperature Yesterday

Maximum temperature yesterday: 88 °F (at 1:50 PM)
Minimum temperature yesterday: 77 °F (at 4:50 AM)
Average temperature yesterday: 83 °F

High & Low Weather Summary for the Past Weeks

 TemperatureHumidityPressure
High88 °F (Jul 13, 1:50 PM)89% (Jul 13, 5:50 AM)29.89 "Hg (Jul 13, 5:50 AM)
Low75 °F (Jul 16, 6:00 AM)49% (Jul 19, 3:50 PM)29.65 "Hg (Jul 19, 5:50 AM)
Average83 °F68%29.75 "Hg
* Reported Jul 12 6:50 AM — Jul 27 6:50 AM, Tulkarm, Weather by CustomWeather, © 2016

Note: Actual official high and low records may vary slightly from our data, if they occured in-between our weather recording intervals... More about our weather records

Advertising

Tulkarm Weather History for the Previous 24 Hours

Scroll right to see more
 ConditionsComfort  
Time TempWeatherWind HumidityBarometerVisibility
6:50 AM
Wed, Jul 27
77 °FPassing clouds.6 mph83%29.74 "HgN/A
5:50 AM77 °FPassing clouds.6 mph89%29.74 "HgN/A
10:50 PM
Tue, Jul 26
81 °FPassing clouds.2 mph79%29.74 "HgN/A
9:50 PM82 °FPassing clouds.3 mph74%29.74 "HgN/A
8:50 PM82 °FPassing clouds.5 mph79%29.71 "HgN/A
7:50 PM82 °FScattered clouds.6 mph79%29.71 "HgN/A
6:50 PM84 °FScattered clouds.7 mph74%29.71 "HgN/A
5:50 PM86 °FPassing clouds.9 mph70%29.71 "HgN/A
4:50 PM86 °FSunny.8 mph70%29.71 "Hg10 mi
3:50 PM88 °FSunny.12 mph66%29.71 "Hg10 mi
2:50 PM88 °FSunny.13 mph62%29.71 "Hg10 mi
1:50 PM88 °FSunny.13 mph62%29.74 "Hg10 mi
12:50 PM86 °FSunny.13 mph66%29.74 "Hg10 mi
11:50 AM86 °FPassing clouds.12 mph66%29.74 "HgN/A
10:50 AM86 °FPassing clouds.10 mph66%29.74 "HgN/A
9:50 AM84 °FPassing clouds.10 mph70%29.74 "HgN/A
8:50 AM82 °FPartly sunny.7 mph74%29.74 "HgN/A
Weather by CustomWeather, © 2016

See weather overviewHow to use our weather pages